Location: Forst
(46.9333°N, 15.4333°E)
Time: 05:00:23
(UTC+00:00)

ISS - Pass Details

Date: 01 December 2020
Orbit: 418 x 419 km, 51.6° (Epoch: 19 January)

Event Time Altitude Azimuth Distance (km) Brightness Sun altitude
Rises 16:16:58 0° 284° (WNW) 2,369 1.1 -10.9°
Reaches altitude 10° 16:19:11 10° 294° (WNW) 1,504 -0.2 -11.2°
Maximum altitude 16:22:19 35° 2° (N) 700 -2.8 -11.7°
Enters shadow 16:24:09 20° 57° (ENE) 1,046 -2.4 -12.0°
